Location: Silverdale
(47.6506°N, 122.6941°W)
Time: 09:53:37
(UTC+00:00)

Tiros 1 despin weight - Pass Details

Date: 04 October 2022
Orbit: 590 x 637 km, 48.2° (Epoch: 02 December)

Event Time Altitude Azimuth Distance (km) Brightness Sun altitude
Rises 04:19:27 0° 284° (WNW) 2,885 ? -26.1°
Reaches altitude 10° 04:21:46 10° 281° (WNW) 1,987 ? -26.5°
Enters shadow 04:25:25 51° 250° (WSW) 785 ? -27.1°
